Radiation Dose measured at Intake/Vertical shaft monitor
Date,Time,Intake(cps),Vertical shaft(cps),Rain
2024/03/09,00:00,4.9,4.6,No
2024/03/09,00:10,5.0,4.7,No
2024/03/09,00:20,4.8,4.5,No
2024/03/09,00:30,4.8,4.7,No
2024/03/09,00:40,4.8,4.6,No
2024/03/09,00:50,4.7,4.6,No
2024/03/09,01:00,5.0,4.7,No
2024/03/09,01:10,5.0,4.5,No
2024/03/09,01:20,4.8,4.5,No
2024/03/09,01:30,4.7,4.6,No
2024/03/09,01:40,4.8,4.6,No
2024/03/09,01:50,4.8,4.6,No
2024/03/09,02:00,4.8,4.8,No
2024/03/09,02:10,4.9,4.7,No
2024/03/09,02:20,5.0,4.5,No
2024/03/09,02:30,4.9,4.6,No
2024/03/09,02:40,4.9,4.7,No
2024/03/09,02:50,4.8,4.7,No
2024/03/09,03:00,4.9,4.6,No
2024/03/09,03:10,4.9,4.7,No
2024/03/09,03:20,4.8,4.7,No
2024/03/09,03:30,4.9,4.6,No
2024/03/09,03:40,4.8,4.6,No
2024/03/09,03:50,4.9,4.7,No
2024/03/09,04:00,4.8,4.6,No
2024/03/09,04:10,4.8,4.7,No
2024/03/09,04:20,4.8,4.6,No
2024/03/09,04:30,4.9,4.7,No
2024/03/09,04:40,4.9,4.5,No
2024/03/09,04:50,4.9,4.6,No
2024/03/09,05:00,4.9,4.5,No
2024/03/09,05:10,4.8,4.6,No
2024/03/09,05:20,4.8,4.5,No
2024/03/09,05:30,4.9,4.6,No
2024/03/09,05:40,4.8,4.7,No
2024/03/09,05:50,4.6,4.7,No
2024/03/09,06:00,4.9,4.6,No
2024/03/09,06:10,4.9,4.5,No
2024/03/09,06:20,4.8,4.6,No
2024/03/09,06:30,4.8,4.7,No
2024/03/09,06:40,4.8,4.6,No
2024/03/09,06:50,4.9,4.4,No
2024/03/09,07:00,4.9,4.6,No
2024/03/09,07:10,5.0,4.6,No
2024/03/09,07:20,4.8,4.6,No
2024/03/09,07:30,5.0,4.6,No
2024/03/09,07:40,4.9,4.6,No
2024/03/09,07:50,4.9,4.5,No
2024/03/09,08:00,5.0,4.5,No
2024/03/09,08:10,4.9,4.5,No
2024/03/09,08:20,4.9,4.6,No
2024/03/09,08:30,4.9,4.7,No
2024/03/09,08:40,4.8,4.6,No
2024/03/09,08:50,4.8,4.6,No
2024/03/09,09:00,4.9,4.6,No
2024/03/09,09:10,4.9,4.8,No
2024/03/09,09:20,4.8,4.7,No
2024/03/09,09:30,4.7,4.6,No
2024/03/09,09:40,4.8,4.6,No
2024/03/09,09:50,4.8,4.5,No
2024/03/09,10:00,4.9,4.5,No
2024/03/09,10:10,4.9,4.5,No
2024/03/09,10:20,4.9,4.5,No
2024/03/09,10:30,4.9,4.6,No
2024/03/09,10:40,4.6,4.7,No
2024/03/09,10:50,4.8,4.6,No
2024/03/09,11:00,4.9,4.5,No
2024/03/09,11:10,4.9,4.6,No
2024/03/09,11:20,4.8,4.6,No
2024/03/09,11:30,4.8,4.5,No
2024/03/09,11:40,4.9,4.6,No
2024/03/09,11:50,4.8,4.7,No
2024/03/09,12:00,4.8,4.5,No
2024/03/09,12:10,4.9,4.6,No
2024/03/09,12:20,4.9,4.6,No
2024/03/09,12:30,4.7,4.6,No
2024/03/09,12:40,4.7,4.6,No
2024/03/09,12:50,4.8,4.6,No
2024/03/09,13:00,4.9,4.5,No
2024/03/09,13:10,5.0,4.6,No
2024/03/09,13:20,4.9,4.6,No
2024/03/09,13:30,5.0,4.6,No
2024/03/09,13:40,5.1,4.7,No
2024/03/09,13:50,4.8,4.5,No
2024/03/09,14:00,4.9,4.6,No
2024/03/09,14:10,4.8,4.6,No
2024/03/09,14:20,4.8,4.5,No
2024/03/09,14:30,5.0,4.6,No
2024/03/09,14:40,4.8,4.7,No
2024/03/09,14:50,4.8,4.6,No
2024/03/09,15:00,4.8,4.6,No
2024/03/09,15:10,4.8,4.5,No
2024/03/09,15:20,4.7,4.5,No
2024/03/09,15:30,4.9,4.6,No
2024/03/09,15:40,4.8,4.5,No
2024/03/09,15:50,4.9,4.6,No
2024/03/09,16:00,4.8,4.7,No
2024/03/09,16:10,4.9,4.5,No
2024/03/09,16:20,4.9,4.5,No
2024/03/09,16:30,4.9,4.5,No
2024/03/09,16:40,4.9,4.4,No
2024/03/09,16:50,5.0,4.7,No
2024/03/09,17:00,4.8,4.7,No
2024/03/09,17:10,4.9,4.8,No
2024/03/09,17:20,4.8,4.7,No
2024/03/09,17:30,4.9,4.6,No
2024/03/09,17:40,4.7,4.6,No
2024/03/09,17:50,4.9,4.6,No
2024/03/09,18:00,4.9,4.6,No
2024/03/09,18:10,5.0,4.6,No
2024/03/09,18:20,4.9,4.5,No
2024/03/09,18:30,4.7,4.6,No
2024/03/09,18:40,4.8,4.5,No
2024/03/09,18:50,4.8,4.6,No
2024/03/09,19:00,4.9,4.6,No
2024/03/09,19:10,4.8,4.7,No
2024/03/09,19:20,5.0,4.7,No
2024/03/09,19:30,4.9,4.5,No
2024/03/09,19:40,4.9,4.6,No
2024/03/09,19:50,5.0,4.7,No
2024/03/09,20:00,5.0,4.7,No
2024/03/09,20:10,4.9,4.7,No
2024/03/09,20:20,5.0,4.5,No
2024/03/09,20:30,5.1,4.6,No
2024/03/09,20:40,5.0,4.7,No
2024/03/09,20:50,5.1,4.7,No
2024/03/09,21:00,5.1,4.8,No
2024/03/09,21:10,5.2,4.7,No
2024/03/09,21:20,5.1,4.7,No
2024/03/09,21:30,5.1,4.7,No
2024/03/09,21:40,5.1,4.7,No
2024/03/09,21:50,5.1,4.7,No
2024/03/09,22:00,5.2,4.6,No
2024/03/09,22:10,5.3,4.7,No
2024/03/09,22:20,5.2,4.7,No
2024/03/09,22:30,5.3,4.6,No
2024/03/09,22:40,5.3,4.7,No
2024/03/09,22:50,5.3,4.8,No
2024/03/09,23:00,5.4,4.7,No
2024/03/09,23:10,5.4,4.8,No
2024/03/09,23:20,5.2,4.7,No
2024/03/09,23:30,5.2,4.7,No
2024/03/09,23:40,5.3,4.7,No
2024/03/09,23:50,5.2,4.8,No
